EW7343 Weather Reports


time (UTC)temp
F
wind
direction
speed
knots
gust
knots
rain 1hr
in
rain 24hr
in
rain mn
in
humidity
%
barometer
mb
20260507075922 49 303 1.7 7.0 0.00 0.29 0.00 87 1006.5
20260507075202 49 0 1.7 7.0 0.00 0.29 0.00 87 1006.4
20260507074702 49 43 1.7 6.1 0.00 0.29 0.00 87 1006.4
20260507074202 49 0 1.7 6.1 0.00 0.29 0.00 87 1006.3
20260507073702 50 317 1.7 8.7 0.00 0.29 0.00 88 1006.2
20260507073201 50 0 1.7 8.7 0.00 0.29 0.00 87 1006.3
20260507072659 50 293 1.7 7.0 0.00 0.29 0.00 88 1006.1
20260507072200 50 38 1.7 5.2 0.00 0.29 0.00 89 1006.1
20260507071700 50 330 1.7 5.2 0.00 0.29 0.00 89 1006.3
20260507071200 50 310 1.7 5.2 0.00 0.29 0.00 89 1006.3
20260507070700 50 309 1.7 6.1 0.00 0.29 0.00 90 1006.1
20260507070424 50 32 2.6 7.0 0.00 0.29 0.00 89 1005.9
20260507065700 50 304 1.7 7.0 0.00 0.29 0.00 89 1006.1
20260507065200 50 0 1.7 7.0 0.00 0.29 0.00 90 1006.1
20260507064700 50 0 1.7 7.0 0.00 0.29 0.00 89 1006.1
20260507064200 50 356 1.7 6.1 0.00 0.29 0.00 89 1005.9
20260507063701 50 338 1.7 7.0 0.00 0.29 0.00 89 1005.9
20260507063157 50 306 2.6 7.0 0.00 0.29 0.00 89 1005.9
20260507062657 50 322 1.7 6.1 0.00 0.29 0.00 89 1005.9
20260507062157 50 324 1.7 5.2 0.00 0.29 0.00 89 1005.9
20260507061658 50 307 1.7 6.1 0.00 0.29 0.00 89 1006.0
20260507061157 50 50 1.7 6.1 0.00 0.29 0.00 89 1006.0
20260507060918 50 309 1.7 6.1 0.00 0.29 0.00 89 1006.0
20260507060155 51 311 0.9 4.3 0.00 0.29 0.00 89 1006.1
20260507055655 51 0 0.9 4.3 0.00 0.29 0.00 90 1006.0
20260507055155 51 0 0.9 5.2 0.00 0.29 0.00 90 1006.1
20260507054655 51 291 1.7 6.1 0.00 0.29 0.00 90 1006.0
20260507054207 51 0 1.7 6.1 0.00 0.29 0.00 90 1006.0
20260507053655 51 0 1.7 8.7 0.00 0.29 0.00 90 1005.9
20260507053155 51 317 2.6 8.7 0.00 0.29 0.00 90 1006.1
20260507052655 51 0 1.7 8.7 0.00 0.29 0.00 90 1006.1
20260507052153 51 314 1.7 5.2 0.00 0.29 0.00 90 1006.1
20260507051653 51 201 1.7 5.2 0.00 0.29 0.00 90 1005.9
20260507051150 52 323 1.7 6.1 0.00 0.29 0.00 91 1005.7
20260507050650 52 50 1.7 6.1 0.00 0.29 0.00 90 1005.8
20260507050150 52 247 1.7 7.0 0.00 0.29 0.00 90 1005.7
20260507045650 52 321 1.7 7.0 0.00 0.29 0.00 90 1006.0
20260507045150 52 157 1.7 6.1 0.00 0.29 0.00 90 1006.0
20260507044651 53 78 0.9 4.3 0.00 0.29 0.00 91 1006.0
20260507044150 53 322 0.9 5.2 0.00 0.29 0.00 91 1006.0
20260507043650 53 273 0.9 5.2 0.00 0.29 0.00 91 1006.1
20260507043408 53 193 0.9 4.3 0.00 0.29 0.00 90 1006.1
20260507042650 53 340 0.9 4.3 0.00 0.29 0.00 90 1005.8
20260507042631 53 357 0.9 4.3 0.00 0.29 0.00 91 1005.8
20260507041650 53 0 0.9 4.3 0.00 0.29 0.00 90 1005.7
20260507041148 54 245 1.7 5.2 0.00 0.29 0.00 90 1005.7
20260507040912 54 298 1.7 6.1 0.00 0.29 0.00 90 1005.6
20260507040148 54 63 1.7 6.1 0.00 0.29 0.00 90 1005.7
20260507035648 55 257 1.7 5.2 0.00 0.29 0.29 90 1005.4
20260507035148 55 121 1.7 7.0 0.00 0.29 0.29 90 1005.3
20260507034647 55 219 1.7 7.0 0.00 0.29 0.29 89 1005.2
20260507034148 56 0 1.7 7.8 0.00 0.29 0.29 89 1005.3
20260507033648 56 16 1.7 7.8 0.00 0.29 0.29 88 1005.3
20260507033430 56 44 1.7 6.1 0.00 0.29 0.29 89 1005.3
20260507032649 57 318 2.6 7.8 0.00 0.29 0.29 90 1005.4
20260507032148 58 269 2.6 8.7 0.00 0.29 0.29 90 1005.5
20260507031645 58 315 1.7 8.7 0.00 0.29 0.29 92 1005.3
20260507031146 58 32 1.7 4.3 0.00 0.29 0.29 92 1005.2
20260507030646 59 317 1.7 7.8 0.00 0.29 0.29 92 1005.0
20260507030146 59 302 1.7 7.8 0.00 0.29 0.29 93 1004.9
20260507025645 59 210 0.9 7.8 0.00 0.29 0.29 94 1004.9
20260507025413 59 357 1.7 4.3 0.00 0.29 0.29 94 1004.8
20260507024646 59 353 0.9 4.3 0.00 0.29 0.29 94 1004.8
20260507024146 59 0 0.9 3.5 0.00 0.29 0.29 94 1004.6
20260507023645 59 0 0.9 3.5 0.00 0.29 0.29 94 1004.6
20260507023408 59 0 0.9 3.5 0.00 0.29 0.29 94 1004.5
20260507022646 59 175 0.9 3.5 0.00 0.29 0.29 94 1004.6
20260507022627 59 145 0.9 2.6 0.00 0.29 0.29 94 1004.5
20260507021643 59 328 0.9 2.6 0.00 0.29 0.29 94 1004.6
20260507021140 59 189 0.9 5.2 0.00 0.29 0.29 94 1004.6
20260507020640 59 0 0.9 5.2 0.00 0.29 0.29 94 1004.7
20260507020354 59 185 0.9 2.6 0.00 0.29 0.29 94 1004.8
20260507015637 59 0 0.9 2.6 0.00 0.29 0.29 94 1004.8
20260507015134 59 0 0.9 3.5 0.00 0.29 0.29 94 1004.8
20260507014635 59 0 0.9 3.5 0.00 0.29 0.29 94 1004.9
20260507014135 59 0 0.0 2.6 0.00 0.29 0.29 94 1004.9
20260507013634 59 222 0.9 3.5 0.00 0.29 0.29 94 1004.9
20260507013133 59 190 0.9 4.3 0.00 0.29 0.29 94 1004.9
20260507012634 59 204 0.0 4.3 0.00 0.29 0.29 94 1004.9
20260507012134 59 0 0.0 2.6 0.00 0.29 0.29 94 1004.9
20260507011634 59 201 0.9 2.6 0.00 0.29 0.29 94 1005.0
20260507011134 60 0 0.0 2.6 0.00 0.29 0.29 94 1004.9
20260507010634 60 0 0.9 5.2 0.00 0.29 0.29 94 1004.9
20260507010134 60 0 0.9 5.2 0.00 0.29 0.29 94 1004.9
20260507005634 60 264 0.9 3.5 0.00 0.29 0.29 94 1004.9
20260507005133 60 232 0.9 3.5 0.00 0.29 0.29 94 1004.9
20260507004633 60 183 0.9 3.5 0.01 0.29 0.29 94 1004.9
20260507004133 60 218 0.9 3.5 0.01 0.29 0.29 94 1005.0
20260507003632 60 0 0.9 3.5 0.01 0.29 0.29 94 1004.9
20260507003132 60 222 0.9 3.5 0.01 0.29 0.29 94 1004.8
20260507002853 60 0 0.9 3.5 0.01 0.29 0.29 94 1004.9
20260507002133 60 226 0.9 3.5 0.02 0.29 0.29 94 1004.8
20260507001633 60 0 0.9 3.5 0.02 0.29 0.29 94 1004.8
20260507001133 60 257 0.9 3.5 0.02 0.29 0.29 94 1004.7
20260507000633 60 0 0.0 2.6 0.02 0.29 0.29 94 1004.7
20260507000409 60 0 0.0 2.6 0.02 0.29 0.29 94 1004.7
20260506235856 60 0 0.9 5.2 0.02 0.29 0.29 94 1004.7
20260506235133 60 0 0.9 5.2 0.02 0.29 0.29 94 1004.7
20260506234631 60 241 0.9 4.3 0.01 0.28 0.28 94 1004.7
20260506234131 60 246 0.9 4.3 0.01 0.28 0.28 94 1004.6
20260506233633 60 0 0.9 3.5 0.01 0.28 0.28 94 1004.6
20260506233130 60 222 0.9 3.5 0.01 0.28 0.28 94 1004.6
20260506232852 60 261 0.9 3.5 0.01 0.28 0.28 94 1004.7
20260506232130 60 143 0.9 4.3 0.00 0.27 0.27 94 1004.8
20260506231630 60 0 0.9 4.3 0.00 0.27 0.27 93 1004.9
20260506231130 60 280 0.9 4.3 0.00 0.27 0.27 94 1004.9
20260506230630 60 266 0.9 2.6 0.00 0.27 0.27 94 1004.8
20260506230130 60 126 0.9 5.2 0.01 0.27 0.27 93 1004.8
20260506225630 60 0 1.7 5.2 0.02 0.27 0.27 93 1004.8
20260506225129 60 220 0.9 5.2 0.04 0.27 0.27 94 1004.8
20260506224847 60 0 0.9 4.3 0.04 0.27 0.27 94 1004.9
20260506224130 60 231 0.9 4.3 0.05 0.27 0.27 94 1004.9
20260506223631 60 131 1.7 4.3 0.05 0.27 0.27 94 1004.9
20260506223130 60 260 1.7 4.3 0.05 0.27 0.27 94 1005.0
20260506222630 60 238 0.9 3.5 0.06 0.27 0.27 94 1005.0
20260506222131 60 184 0.9 5.2 0.07 0.27 0.27 94 1005.0
20260506221630 60 229 0.9 5.2 0.07 0.27 0.27 94 1005.0
20260506221143 60 205 0.9 3.5 0.08 0.27 0.27 94 1005.0
20260506220630 60 205 0.9 3.5 0.08 0.27 0.27 94 1005.1
20260506220352 60 206 1.7 5.2 0.08 0.26 0.26 94 1005.2
20260506215629 60 188 1.7 5.2 0.07 0.25 0.25 93 1005.2
20260506215351 60 217 0.9 4.3 0.06 0.23 0.23 93 1005.2
20260506214631 60 248 0.9 3.5 0.06 0.23 0.23 93 1005.2
20260506214345 60 204 1.7 5.2 0.06 0.22 0.22 93 1005.3
20260506213627 60 220 1.7 7.0 0.07 0.22 0.22 93 1005.3
20260506213127 60 0 1.7 7.0 0.08 0.22 0.22 93 1005.3
20260506212627 60 225 1.7 5.2 0.08 0.22 0.22 93 1005.4
20260506212127 61 228 1.7 5.2 0.08 0.20 0.20 93 1005.3
20260506211627 61 0 1.7 4.3 0.07 0.20 0.20 93 1005.5
20260506211127 61 0 1.7 5.2 0.07 0.19 0.19 93 1005.4
20260506210627 61 141 1.7 5.2 0.07 0.19 0.19 93 1005.4
20260506210127 61 225 0.9 4.3 0.07 0.18 0.18 93 1005.4
20260506205627 62 0 1.7 4.3 0.07 0.18 0.18 93 1005.4
20260506205125 62 190 0.9 3.5 0.07 0.18 0.18 93 1005.4
20260506204625 62 0 0.9 3.5 0.06 0.17 0.17 93 1005.5
20260506204121 62 230 0.9 4.3 0.06 0.17 0.17 93 1005.5
20260506203622 62 172 0.9 4.3 0.04 0.15 0.15 93 1005.5
20260506203122 62 0 0.9 4.3 0.04 0.14 0.14 93 1005.6
20260506202622 62 0 1.7 4.3 0.04 0.13 0.13 93 1005.6
20260506202122 62 203 0.9 2.6 0.04 0.13 0.13 94 1005.5
20260506201621 62 0 0.0 2.6 0.04 0.12 0.12 94 1005.5
20260506201122 62 0 0.9 2.6 0.04 0.12 0.12 93 1005.5
20260506200622 62 0 0.0 1.7 0.04 0.11 0.11 93 1005.5
20260506200122 62 0 0.0 1.7 0.04 0.11 0.11 93 1005.3
20260506195622 62 0 0.0 1.7 0.04 0.11 0.11 93 1005.4
20260506195123 62 0 0.0 1.7 0.05 0.11 0.11 93 1005.5
20260506194619 62 228 0.0 2.6 0.06 0.11 0.11 92 1005.5
20260506194119 62 0 0.0 2.6 0.06 0.11 0.11 92 1005.4
20260506193616 62 0 0.0 1.7 0.06 0.11 0.11 92 1005.4
20260506193341 62 0 0.0 0.9 0.06 0.10 0.10 92 1005.5
20260506192617 62 214 0.0 0.9 0.06 0.09 0.09 92 1005.6
20260506192343 62 0 0.0 1.7 0.06 0.09 0.09 91 1005.7
20260506191617 62 0 0.0 1.7 0.07 0.09 0.09 91 1005.7
20260506191117 63 327 0.9 3.5 0.08 0.08 0.08 91 1005.7
20260506190630 63 321 0.9 4.3 0.07 0.07 0.07 91 1005.8
20260506190114 63 315 0.9 4.3 0.07 0.07 0.07 90 1005.9
20260506185614 63 53 1.7 8.7 0.07 0.07 0.07 90 1005.9
20260506185331 63 17 0.9 8.7 0.06 0.06 0.06 90 1006.1
20260506184832 64 333 0.9 4.3 0.05 0.05 0.05 89 1005.9
20260506184335 64 323 0.9 4.3 0.05 0.05 0.05 88 1005.7
20260506183612 65 310 1.7 4.3 0.04 0.04 0.04 87 1005.7
20260506183330 65 246 0.9 7.0 0.04 0.04 0.04 86 1005.8
20260506182608 67 0 1.7 7.0 0.04 0.04 0.04 83 1005.7
20260506182109 69 326 2.6 7.0 0.03 0.03 0.03 79 1005.7
20260506181609 70 316 2.6 7.0 0.02 0.02 0.02 69 1005.7
20260506181109 71 182 3.5 7.0 0.00 0.00 0.00 63 1005.5
20260506180609 72 206 3.5 10.4 0.00 0.00 0.00 61 1005.3
20260506180114 72 223 3.5 10.4 0.00 0.00 0.00 58 1005.2
20260506175825 72 133 3.5 7.8 0.00 0.00 0.00 57 1005.2
20260506175109 72 203 2.6 7.8 0.00 0.00 0.00 57 1005.1
20260506174831 73 185 2.6 6.1 0.00 0.00 0.00 57 1005.2
20260506174107 73 194 2.6 7.8 0.00 0.00 0.00 57 1005.3
20260506173604 73 326 2.6 7.8 0.00 0.00 0.00 57 1005.3
20260506173104 73 171 2.6 7.8 0.00 0.00 0.00 56 1005.4
20260506172833 73 227 3.5 11.3 0.00 0.00 0.00 58 1005.4
20260506172103 73 264 3.5 11.3 0.00 0.00 0.00 57 1005.5
20260506171602 73 140 2.6 6.1 0.00 0.00 0.00 58 1005.5
20260506171102 73 164 2.6 6.1 0.00 0.00 0.00 59 1005.5
20260506170602 73 211 2.6 6.1 0.00 0.00 0.00 59 1005.6
20260506170337 72 212 1.7 6.1 0.00 0.00 0.00 59 1005.7
20260506165603 72 185 1.7 6.1 0.00 0.00 0.00 60 1005.8
20260506165103 72 0 1.7 7.0 0.00 0.00 0.00 60 1005.8
20260506164603 72 331 1.7 7.0 0.00 0.00 0.00 60 1005.9
20260506164101 72 231 1.7 7.0 0.00 0.00 0.00 61 1006.0
20260506163602 72 168 1.7 7.0 0.00 0.00 0.00 59 1006.0
20260506163102 72 200 1.7 5.2 0.00 0.00 0.00 59 1006.1
20260506162602 71 0 2.6 6.1 0.00 0.00 0.00 60 1006.2
20260506162335 71 178 2.6 9.6 0.00 0.00 0.00 60 1006.3
20260506161559 71 252 2.6 9.6 0.00 0.00 0.00 60 1006.4
20260506161334 71 165 2.6 7.0 0.00 0.00 0.00 60 1006.5
20260506160600 71 325 1.7 5.2 0.00 0.00 0.00 61 1006.7
20260506160112 71 117 2.6 5.2 0.00 0.00 0.00 63 1006.7
20260506155600 71 238 2.6 6.1 0.00 0.00 0.00 63 1006.8
20260506155059 70 200 2.6 6.1 0.00 0.00 0.00 65 1006.9
20260506154821 71 147 1.7 5.2 0.00 0.00 0.00 64 1007.0
20260506154056 71 210 1.7 5.2 0.00 0.00 0.00 64 1007.1
20260506153557 70 327 1.7 6.1 0.00 0.00 0.00 65 1007.2
20260506153057 70 175 2.6 6.1 0.00 0.00 0.00 65 1007.2
20260506152557 70 246 2.6 7.0 0.00 0.00 0.00 65 1007.3
20260506152057 70 227 1.7 7.0 0.00 0.00 0.00 66 1007.2
20260506151557 70 145 1.7 5.2 0.00 0.00 0.00 66 1007.1
20260506151056 69 154 1.7 7.8 0.00 0.00 0.00 67 1007.2
20260506150557 69 204 2.6 7.8 0.00 0.00 0.00 67 1007.4
20260506150110 69 312 2.6 7.8 0.00 0.00 0.00 67 1007.4
20260506145557 69 257 2.6 7.8 0.00 0.00 0.00 67 1007.3
20260506145317 69 0 3.5 7.8 0.00 0.00 0.00 68 1007.2
20260506144558 69 171 2.6 7.0 0.00 0.00 0.00 68 1007.1
20260506144055 69 324 2.6 6.1 0.00 0.00 0.00 69 1007.2
20260506143555 69 211 1.7 6.1 0.00 0.00 0.00 68 1007.3
20260506143052 68 271 1.7 6.1 0.00 0.00 0.00 70 1007.2
20260506142552 68 325 1.7 6.1 0.00 0.00 0.00 70 1007.2
20260506142048 67 177 2.6 6.1 0.00 0.00 0.00 70 1007.1
20260506141814 67 221 2.6 7.0 0.00 0.00 0.00 71 1007.2
20260506141049 67 290 2.6 7.0 0.00 0.00 0.00 71 1007.2
20260506140549 67 193 3.5 7.0 0.00 0.00 0.00 71 1007.2
20260506135550 67 166 2.6 9.6 0.00 0.00 0.00 71 1007.3
20260506135049 67 265 1.7 6.1 0.00 0.00 0.00 72 1007.3
20260506134549 67 0 1.7 6.1 0.00 0.00 0.00 72 1007.4
20260506134049 66 104 1.7 7.8 0.00 0.00 0.00 72 1007.5
20260506133549 66 182 1.7 7.8 0.00 0.00 0.00 73 1007.6
20260506133049 66 0 1.7 5.2 0.00 0.00 0.00 72 1007.6
20260506132809 66 175 1.7 5.2 0.00 0.00 0.00 73 1007.5
20260506132046 66 241 1.7 4.3 0.00 0.00 0.00 73 1007.5
20260506131546 66 240 1.7 4.3 0.00 0.00 0.00 73 1007.5
20260506131045 66 211 1.7 5.2 0.00 0.00 0.00 72 1007.6
20260506130545 66 122 1.7 5.2 0.00 0.00 0.00 73 1007.6
20260506130059 66 193 1.7 6.1 0.00 0.00 0.00 73 1007.6
20260506125546 66 215 1.7 6.1 0.00 0.00 0.00 73 1007.5
20260506125046 66 274 1.7 6.1 0.00 0.00 0.00 73 1007.5
20260506124546 66 190 2.6 7.0 0.00 0.00 0.00 73 1007.4
20260506124046 65 75 2.6 7.0 0.00 0.00 0.00 73 1007.5
20260506123810 65 180 1.7 7.0 0.00 0.00 0.00 73 1007.5
20260506123046 65 284 1.7 7.0 0.00 0.00 0.00 73 1007.7
20260506122547 65 162 1.7 6.1 0.00 0.00 0.00 74 1007.7
20260506122047 65 216 1.7 6.1 0.00 0.00 0.00 74 1007.8
20260506121546 64 212 0.9 6.1 0.00 0.00 0.00 76 1007.8
20260506121311 64 175 0.9 5.2 0.00 0.00 0.00 76 1007.9
20260506120545 64 0 1.7 4.3 0.00 0.00 0.00 76 1007.9
20260506120041 64 221 0.9 3.5 0.00 0.00 0.00 76 1008.0
20260506115541 64 149 0.9 3.5 0.00 0.00 0.00 76 1008.0
20260506115042 63 192 0.9 6.1 0.00 0.00 0.00 76 1008.1
20260506114555 63 322 1.7 6.1 0.00 0.00 0.00 76 1008.1
20260506114043 63 312 1.7 6.1 0.00 0.00 0.00 76 1008.0
20260506113543 63 199 1.7 7.0 0.00 0.00 0.00 76 1008.0
20260506113306 63 196 1.7 7.0 0.00 0.00 0.00 76 1008.1
20260506112543 63 179 0.9 7.0 0.00 0.00 0.00 77 1008.1
20260506112039 62 192 0.9 6.1 0.00 0.00 0.00 77 1008.1
20260506111813 62 245 1.7 6.1 0.00 0.00 0.00 77 1008.2
20260506111037 62 309 0.9 6.1 0.00 0.00 0.00 77 1008.3
20260506110537 62 198 0.9 4.3 0.00 0.00 0.00 78 1008.1
20260506110257 62 0 0.9 4.3 0.00 0.00 0.00 78 1008.2
20260506105803 62 0 0.0 2.6 0.00 0.00 0.00 78 1008.3
20260506105037 62 272 0.9 4.3 0.00 0.00 0.00 78 1008.2
20260506104538 62 205 0.9 4.3 0.00 0.00 0.00 78 1008.1
20260506104037 62 277 0.9 3.5 0.00 0.00 0.00 78 1008.1
20260506103537 62 0 0.9 3.5 0.00 0.00 0.00 78 1008.1
20260506103037 62 0 0.9 3.5 0.00 0.00 0.00 77 1008.2
20260506102537 62 0 0.9 2.6 0.00 0.00 0.00 77 1008.1
20260506102258 62 263 0.9 3.5 0.00 0.00 0.00 77 1008.1
20260506101805 62 186 0.9 4.3 0.00 0.00 0.00 77 1008.1
20260506101037 62 170 0.9 4.3 0.00 0.00 0.00 77 1008.2
20260506100535 62 231 0.9 3.5 0.00 0.00 0.00 77 1008.2
20260506100036 62 296 1.7 4.3 0.00 0.00 0.00 77 1008.1
20260506095531 62 175 1.7 4.3 0.00 0.00 0.00 76 1008.1
20260506095030 62 178 0.9 4.3 0.00 0.00 0.00 76 1007.9
20260506094531 62 85 0.9 6.1 0.00 0.00 0.00 76 1008.0
20260506094248 62 116 1.7 6.1 0.00 0.00 0.00 76 1008.0
20260506093749 62 241 0.9 6.1 0.00 0.00 0.00 76 1008.1
20260506093030 62 231 0.9 6.1 0.00 0.00 0.00 76 1008.0
20260506092732 62 266 1.7 6.1 0.00 0.00 0.00 75 1007.9
20260506092725 62 0 1.7 6.1 0.00 0.00 0.00 75 1008.0
20260506091752 62 222 1.7 6.1 0.00 0.00 0.00 75 1007.9
20260506091030 62 0 1.7 6.1 0.00 0.00 0.00 75 1007.9
20260506090530 62 131 1.7 6.1 0.00 0.00 0.00 75 1007.8
20260506090516 62 244 0.9 6.1 0.00 0.00 0.00 75 1007.8
20260506085530 62 0 0.9 6.1 0.00 0.00 0.00 75 1007.8
20260506085030 62 0 1.7 6.1 0.00 0.00 0.00 74 1007.8
20260506084529 62 242 0.9 5.2 0.00 0.00 0.00 74 1007.8
20260506084030 62 268 0.9 3.5 0.00 0.00 0.00 74 1007.8
20260506083530 63 278 0.9 3.5 0.00 0.00 0.00 73 1007.7
20260506083031 63 258 0.9 4.3 0.00 0.00 0.00 73 1007.8
20260506082529 63 280 0.9 4.3 0.00 0.00 0.00 72 1007.8
20260506082030 63 136 0.9 4.3 0.00 0.00 0.00 72 1007.8
20260506081531 63 259 0.9 4.3 0.00 0.00 0.00 72 1007.7
20260506081247 63 197 0.9 4.3 0.00 0.00 0.00 72 1007.7
20260506080530 63 311 0.9 3.5 0.00 0.00 0.00 71 1007.7